| time (UTC) | temp F | wind direction | speed MPH | gust MPH | rain 1hr in | rain 24hr in | rain mn in | humidity % | barometer mb |
| 20260505003752 | 74 | 146 | 3.0 | 8.0 | 0.00 | 0.00 | 0.00 | 51 | 1007.1 |
| 20260505003220 | 74 | 140 | 1.0 | 8.0 | 0.00 | 0.00 | 0.00 | 53 | 1007.1 |
| 20260505002650 | 75 | 143 | 1.0 | 5.0 | 0.00 | 0.00 | 0.00 | 51 | 1007.4 |
| 20260505002359 | 75 | 162 | 3.0 | 8.0 | 0.00 | 0.00 | 0.00 | 50 | 1007.4 |
| 20260505001824 | 75 | 122 | 4.0 | 9.0 | 0.00 | 0.00 | 0.00 | 49 | 1007.4 |
| 20260505001030 | 75 | 132 | 4.0 | 10.0 | 0.00 | 0.00 | 0.00 | 49 | 1007.3 |
| 20260505000718 | 76 | 138 | 4.0 | 10.0 | 0.00 | 0.00 | 0.00 | 49 | 1007.3 |
| 20260504235929 | 76 | 145 | 4.0 | 12.0 | 0.00 | 0.00 | 0.00 | 48 | 1007.3 |
| 20260504235354 | 76 | 173 | 4.0 | 12.0 | 0.00 | 0.00 | 0.00 | 47 | 1007.4 |
| 20260504234823 | 76 | 131 | 4.0 | 12.0 | 0.00 | 0.00 | 0.00 | 47 | 1007.4 |
| 20260504234253 | 76 | 225 | 3.0 | 9.0 | 0.00 | 0.00 | 0.00 | 47 | 1007.7 |
| 20260504233722 | 76 | 135 | 3.0 | 9.0 | 0.00 | 0.00 | 0.00 | 47 | 1007.7 |
| 20260504233150 | 77 | 142 | 3.0 | 10.0 | 0.00 | 0.00 | 0.00 | 46 | 1007.7 |
| 20260504232620 | 77 | 146 | 3.0 | 10.0 | 0.00 | 0.00 | 0.00 | 45 | 1008.0 |
| 20260504232050 | 77 | 148 | 3.0 | 8.0 | 0.00 | 0.00 | 0.00 | 45 | 1008.0 |
| 20260504231520 | 77 | 138 | 3.0 | 8.0 | 0.00 | 0.00 | 0.00 | 44 | 1008.0 |
| 20260504230953 | 78 | 207 | 4.0 | 12.0 | 0.00 | 0.00 | 0.00 | 45 | 1008.1 |
| 20260504230642 | 78 | 149 | 4.0 | 12.0 | 0.00 | 0.00 | 0.00 | 44 | 1008.1 |
| 20260504225911 | 78 | 152 | 4.0 | 10.0 | 0.00 | 0.00 | 0.00 | 43 | 1008.2 |
| 20260504225336 | 78 | 121 | 6.0 | 12.0 | 0.00 | 0.00 | 0.00 | 44 | 1008.2 |
| 20260504224806 | 78 | 188 | 5.0 | 10.0 | 0.00 | 0.00 | 0.00 | 42 | 1008.2 |
| 20260504224234 | 79 | 205 | 5.0 | 10.0 | 0.00 | 0.00 | 0.00 | 42 | 1008.2 |
| 20260504223704 | 79 | 208 | 5.0 | 14.0 | 0.00 | 0.00 | 0.00 | 42 | 1008.2 |
| 20260504223132 | 79 | 116 | 5.0 | 17.0 | 0.00 | 0.00 | 0.00 | 41 | 1008.2 |
| 20260504222603 | 79 | 152 | 9.0 | 21.0 | 0.00 | 0.00 | 0.00 | 40 | 1008.3 |
| 20260504222030 | 79 | 176 | 9.0 | 21.0 | 0.00 | 0.00 | 0.00 | 41 | 1008.3 |
| 20260504221458 | 79 | 176 | 8.0 | 17.0 | 0.00 | 0.00 | 0.00 | 40 | 1008.3 |
| 20260504221209 | 79 | 211 | 6.0 | 13.0 | 0.00 | 0.00 | 0.00 | 41 | 1008.5 |
| 20260504220429 | 79 | 164 | 5.0 | 14.0 | 0.00 | 0.00 | 0.00 | 41 | 1008.5 |
| 20260504215926 | 80 | 238 | 6.0 | 14.0 | 0.00 | 0.00 | 0.00 | 41 | 1008.5 |
| 20260504215421 | 80 | 119 | 6.0 | 14.0 | 0.00 | 0.00 | 0.00 | 41 | 1008.5 |
| 20260504214922 | 80 | 139 | 6.0 | 19.0 | 0.00 | 0.00 | 0.00 | 41 | 1008.5 |
| 20260504214402 | 79 | 252 | 6.0 | 19.0 | 0.00 | 0.00 | 0.00 | 42 | 1008.6 |
| 20260504213852 | 80 | 225 | 5.0 | 14.0 | 0.00 | 0.00 | 0.00 | 40 | 1008.6 |
| 20260504213352 | 80 | 166 | 6.0 | 14.0 | 0.00 | 0.00 | 0.00 | 39 | 1008.6 |
| 20260504213101 | 80 | 159 | 6.0 | 14.0 | 0.00 | 0.00 | 0.00 | 40 | 1008.7 |
| 20260504212338 | 80 | 142 | 6.0 | 12.0 | 0.00 | 0.00 | 0.00 | 41 | 1008.7 |
| 20260504211817 | 80 | 143 | 6.0 | 19.0 | 0.00 | 0.00 | 0.00 | 38 | 1008.7 |
| 20260504211250 | 80 | 119 | 6.0 | 19.0 | 0.00 | 0.00 | 0.00 | 40 | 1008.9 |
| 20260504210746 | 80 | 200 | 5.0 | 14.0 | 0.00 | 0.00 | 0.00 | 39 | 1008.9 |
| 20260504210446 | 80 | 173 | 5.0 | 14.0 | 0.00 | 0.00 | 0.00 | 41 | 1008.9 |
| 20260504205659 | 80 | 136 | 5.0 | 14.0 | 0.00 | 0.00 | 0.00 | 39 | 1009.1 |
| 20260504205159 | 80 | 133 | 5.0 | 13.0 | 0.00 | 0.00 | 0.00 | 40 | 1009.1 |
| 20260504205010 | 80 | 200 | 6.0 | 14.0 | 0.00 | 0.00 | 0.00 | 41 | 1009.1 |
| 20260504203630 | 80 | 136 | 5.0 | 14.0 | 0.00 | 0.00 | 0.00 | 41 | 1009.3 |
| 20260504203128 | 80 | 157 | 6.0 | 17.0 | 0.00 | 0.00 | 0.00 | 41 | 1009.3 |
| 20260504202608 | 80 | 248 | 8.0 | 18.0 | 0.00 | 0.00 | 0.00 | 38 | 1009.6 |
| 20260504202104 | 81 | 121 | 6.0 | 14.0 | 0.00 | 0.00 | 0.00 | 37 | 1009.6 |
| 20260504201540 | 80 | 138 | 6.0 | 14.0 | 0.00 | 0.00 | 0.00 | 40 | 1009.6 |
| 20260504201037 | 80 | 125 | 8.0 | 18.0 | 0.00 | 0.00 | 0.00 | 39 | 1009.7 |
| 20260504200518 | 80 | 131 | 9.0 | 18.0 | 0.00 | 0.00 | 0.00 | 39 | 1009.8 |
| 20260504200014 | 80 | 94 | 9.0 | 18.0 | 0.00 | 0.00 | 0.00 | 39 | 1009.8 |
| 20260504195444 | 79 | 194 | 9.0 | 18.0 | 0.00 | 0.00 | 0.00 | 40 | 1010.1 |
| 20260504195146 | 80 | 164 | 8.0 | 18.0 | 0.00 | 0.00 | 0.00 | 39 | 1010.1 |
| 20260504194900 | 79 | 176 | 8.0 | 21.0 | 0.00 | 0.00 | 0.00 | 39 | 1010.1 |
| 20260504194131 | 79 | 190 | 9.0 | 23.0 | 0.00 | 0.00 | 0.00 | 40 | 1010.1 |
| 20260504193404 | 79 | 102 | 10.0 | 23.0 | 0.00 | 0.00 | 0.00 | 40 | 1010.1 |
| 20260504192838 | 79 | 104 | 8.0 | 19.0 | 0.00 | 0.00 | 0.00 | 40 | 1010.4 |
| 20260504192603 | 80 | 236 | 5.0 | 18.0 | 0.00 | 0.00 | 0.00 | 38 | 1010.4 |
| 20260504191807 | 80 | 224 | 6.0 | 18.0 | 0.00 | 0.00 | 0.00 | 39 | 1010.4 |
| 20260504191304 | 80 | 108 | 6.0 | 17.0 | 0.00 | 0.00 | 0.00 | 40 | 1010.7 |
| 20260504190738 | 79 | 112 | 8.0 | 18.0 | 0.00 | 0.00 | 0.00 | 41 | 1010.7 |
| 20260504190454 | 79 | 156 | 9.0 | 19.0 | 0.00 | 0.00 | 0.00 | 40 | 1010.7 |
| 20260504185710 | 79 | 139 | 9.0 | 21.0 | 0.00 | 0.00 | 0.00 | 41 | 1010.7 |
| 20260504185206 | 79 | 180 | 9.0 | 21.0 | 0.00 | 0.00 | 0.00 | 41 | 1010.7 |
| 20260504184640 | 79 | 259 | 8.0 | 14.0 | 0.00 | 0.00 | 0.00 | 42 | 1010.7 |
| 20260504184136 | 79 | 35 | 8.0 | 18.0 | 0.00 | 0.00 | 0.00 | 42 | 1010.9 |
| 20260504183609 | 79 | 129 | 6.0 | 18.0 | 0.00 | 0.00 | 0.00 | 41 | 1010.9 |
| 20260504183106 | 78 | 224 | 6.0 | 14.0 | 0.00 | 0.00 | 0.00 | 41 | 1010.9 |
| 20260504182802 | 78 | 13 | 8.0 | 17.0 | 0.00 | 0.00 | 0.00 | 42 | 1010.9 |
| 20260504182036 | 78 | 218 | 5.0 | 17.0 | 0.00 | 0.00 | 0.00 | 43 | 1010.9 |
| 20260504181509 | 78 | 228 | 6.0 | 13.0 | 0.00 | 0.00 | 0.00 | 39 | 1010.9 |
| 20260504181002 | 78 | 201 | 6.0 | 21.0 | 0.00 | 0.00 | 0.00 | 40 | 1011.2 |
| 20260504180458 | 78 | 248 | 6.0 | 21.0 | 0.00 | 0.00 | 0.00 | 42 | 1011.2 |
| 20260504175934 | 78 | 166 | 8.0 | 14.0 | 0.00 | 0.00 | 0.00 | 43 | 1011.2 |
| 20260504175434 | 78 | 220 | 9.0 | 18.0 | 0.00 | 0.00 | 0.00 | 40 | 1011.6 |
| 20260504174908 | 77 | 131 | 9.0 | 27.0 | 0.00 | 0.00 | 0.00 | 41 | 1011.6 |
| 20260504174354 | 78 | 143 | 8.0 | 27.0 | 0.00 | 0.00 | 0.00 | 41 | 1012.0 |
| 20260504173850 | 78 | 225 | 5.0 | 14.0 | 0.00 | 0.00 | 0.00 | 40 | 1012.0 |
| 20260504173326 | 78 | 84 | 5.0 | 18.0 | 0.00 | 0.00 | 0.00 | 38 | 1012.0 |
| 20260504172828 | 77 | 135 | 6.0 | 17.0 | 0.00 | 0.00 | 0.00 | 40 | 1012.0 |
| 20260504172309 | 77 | 258 | 6.0 | 17.0 | 0.00 | 0.00 | 0.00 | 41 | 1012.0 |
| 20260504171808 | 77 | 140 | 8.0 | 17.0 | 0.00 | 0.00 | 0.00 | 41 | 1012.0 |
| 20260504171242 | 77 | 172 | 9.0 | 17.0 | 0.00 | 0.00 | 0.00 | 41 | 1012.2 |
| 20260504170924 | 77 | 124 | 9.0 | 26.0 | 0.00 | 0.00 | 0.00 | 41 | 1012.2 |
| 20260504170144 | 77 | 90 | 9.0 | 18.0 | 0.00 | 0.00 | 0.00 | 39 | 1012.2 |
| 20260504160429 | 75 | 253 | 5.0 | 17.0 | 0.00 | 0.00 | 0.00 | 46 | 1012.8 |
| 20260504150713 | 71 | 157 | 4.0 | 10.0 | 0.00 | 0.00 | 0.00 | 56 | 1012.9 |
| 20260504150141 | 70 | 143 | 5.0 | 12.0 | 0.00 | 0.00 | 0.00 | 58 | 1012.9 |
| 20260504140853 | 66 | 204 | 3.0 | 10.0 | 0.00 | 0.00 | 0.00 | 65 | 1013.3 |
| 20260504140354 | 66 | 211 | 4.0 | 12.0 | 0.00 | 0.00 | 0.00 | 66 | 1013.2 |
| 20260504130619 | 61 | 160 | 4.0 | 10.0 | 0.00 | 0.00 | 0.00 | 76 | 1012.7 |
| 20260504100143 | 58 | 172 | 0.0 | 1.0 | 0.00 | 0.00 | 0.00 | 83 | 1012.3 |
| 20260504090135 | 60 | 172 | 1.0 | 3.0 | 0.00 | 0.00 | 0.00 | 78 | 1012.4 |
| 20260504081947 | 61 | 172 | 1.0 | 3.0 | 0.00 | 0.00 | 0.00 | 75 | 1012.6 |
| 20260504081639 | 61 | 172 | 1.0 | 3.0 | 0.00 | 0.00 | 0.00 | 75 | 1012.6 |
| 20260504080838 | 61 | 173 | 0.0 | 3.0 | 0.00 | 0.00 | 0.00 | 74 | 1012.6 |
| 20260504080333 | 62 | 180 | 0.0 | 3.0 | 0.00 | 0.00 | 0.00 | 74 | 1012.6 |
| 20260504050212 | 65 | 146 | 1.0 | 3.0 | 0.00 | 0.00 | 0.00 | 66 | 1013.6 |
| 20260504045855 | 65 | 146 | 1.0 | 3.0 | 0.00 | 0.00 | 0.00 | 66 | 1013.6 |
| 20260504045056 | 65 | 146 | 0.0 | 3.0 | 0.00 | 0.00 | 0.00 | 66 | 1013.6 |
| 20260504044520 | 65 | 146 | 0.0 | 3.0 | 0.00 | 0.00 | 0.00 | 65 | 1013.6 |
| 20260504044229 | 66 | 146 | 1.0 | 3.0 | 0.00 | 0.00 | 0.00 | 65 | 1013.5 |
| 20260504043654 | 66 | 146 | 1.0 | 5.0 | 0.00 | 0.00 | 0.00 | 64 | 1013.5 |
| 20260504042858 | 66 | 146 | 1.0 | 5.0 | 0.00 | 0.00 | 0.00 | 63 | 1013.7 |
| 20260504042551 | 67 | 146 | 1.0 | 5.0 | 0.00 | 0.00 | 0.00 | 62 | 1013.8 |
| 20260504041753 | 67 | 145 | 1.0 | 5.0 | 0.00 | 0.00 | 0.00 | 62 | 1013.8 |
| 20260504041214 | 67 | 145 | 1.0 | 5.0 | 0.00 | 0.00 | 0.00 | 61 | 1014.0 |
| 20260504040642 | 67 | 129 | 1.0 | 5.0 | 0.00 | 0.00 | 0.00 | 61 | 1014.0 |
| 20260504040110 | 67 | 146 | 1.0 | 5.0 | 0.00 | 0.00 | 0.00 | 61 | 1014.0 |
| 20260504035538 | 68 | 140 | 1.0 | 5.0 | 0.00 | 0.00 | 0.00 | 60 | 1014.0 |
| 20260504035008 | 68 | 142 | 1.0 | 5.0 | 0.00 | 0.00 | 0.00 | 60 | 1014.0 |
| 20260504034438 | 68 | 146 | 1.0 | 5.0 | 0.00 | 0.00 | 0.00 | 60 | 1013.9 |
| 20260504034129 | 68 | 163 | 1.0 | 3.0 | 0.00 | 0.00 | 0.00 | 60 | 1013.9 |
| 20260504033400 | 68 | 124 | 1.0 | 8.0 | 0.00 | 0.00 | 0.00 | 59 | 1013.9 |
| 20260504032827 | 68 | 116 | 1.0 | 8.0 | 0.00 | 0.00 | 0.00 | 58 | 1014.0 |
| 20260504032315 | 69 | 173 | 1.0 | 5.0 | 0.00 | 0.00 | 0.00 | 58 | 1014.0 |
| 20260504031744 | 69 | 132 | 1.0 | 8.0 | 0.00 | 0.00 | 0.00 | 58 | 1014.0 |
| 20260504031654 | 69 | 131 | 1.0 | 8.0 | 0.00 | 0.00 | 0.00 | 57 | 1013.9 |
| 20260504030645 | 69 | 146 | 3.0 | 5.0 | 0.00 | 0.00 | 0.00 | 58 | 1013.9 |
| 20260504030114 | 69 | 143 | 3.0 | 5.0 | 0.00 | 0.00 | 0.00 | 58 | 1013.9 |
| 20260504025544 | 69 | 155 | 1.0 | 5.0 | 0.00 | 0.00 | 0.00 | 57 | 1013.9 |
| 20260504025014 | 69 | 143 | 3.0 | 5.0 | 0.00 | 0.00 | 0.00 | 57 | 1013.9 |
| 20260504024443 | 69 | 146 | 3.0 | 8.0 | 0.00 | 0.00 | 0.00 | 57 | 1013.8 |
| 20260504024135 | 69 | 146 | 3.0 | 8.0 | 0.00 | 0.00 | 0.00 | 57 | 1013.8 |
| 20260504023342 | 69 | 139 | 1.0 | 8.0 | 0.00 | 0.00 | 0.00 | 57 | 1013.8 |
| 20260504022834 | 69 | 149 | 3.0 | 5.0 | 0.00 | 0.00 | 0.00 | 56 | 1013.8 |
| 20260504022255 | 70 | 153 | 3.0 | 5.0 | 0.00 | 0.00 | 0.00 | 56 | 1013.8 |
| 20260504021738 | 70 | 152 | 3.0 | 5.0 | 0.00 | 0.00 | 0.00 | 56 | 1013.8 |
| 20260504021228 | 70 | 164 | 3.0 | 5.0 | 0.00 | 0.00 | 0.00 | 56 | 1013.9 |
| 20260504020728 | 70 | 140 | 1.0 | 5.0 | 0.00 | 0.00 | 0.00 | 56 | 1013.9 |
| 20260504020414 | 70 | 140 | 1.0 | 5.0 | 0.00 | 0.00 | 0.00 | 56 | 1013.9 |
| 20260504015646 | 70 | 148 | 1.0 | 3.0 | 0.00 | 0.00 | 0.00 | 56 | 1013.6 |
| 20260504015144 | 70 | 148 | 1.0 | 3.0 | 0.00 | 0.00 | 0.00 | 56 | 1013.6 |
| 20260504014627 | 70 | 148 | 1.0 | 3.0 | 0.00 | 0.00 | 0.00 | 55 | 1013.6 |
| 20260504014127 | 70 | 148 | 1.0 | 3.0 | 0.00 | 0.00 | 0.00 | 54 | 1013.6 |
| 20260504013558 | 71 | 148 | 1.0 | 3.0 | 0.00 | 0.00 | 0.00 | 54 | 1013.6 |
| 20260504013035 | 71 | 148 | 1.0 | 3.0 | 0.00 | 0.00 | 0.00 | 54 | 1013.6 |
| 20260504012536 | 71 | 148 | 1.0 | 3.0 | 0.00 | 0.00 | 0.00 | 53 | 1013.5 |
| 20260504012008 | 71 | 149 | 1.0 | 5.0 | 0.00 | 0.00 | 0.00 | 53 | 1013.5 |
| 20260504011450 | 72 | 149 | 1.0 | 5.0 | 0.00 | 0.00 | 0.00 | 51 | 1013.6 |
| 20260504010946 | 72 | 152 | 1.0 | 3.0 | 0.00 | 0.00 | 0.00 | 50 | 1013.6 |
| 20260504010420 | 73 | 152 | 1.0 | 3.0 | 0.00 | 0.00 | 0.00 | 50 | 1013.6 |
| 20260504005920 | 73 | 152 | 1.0 | 3.0 | 0.00 | 0.00 | 0.00 | 50 | 1013.6 |
| 20260504005358 | 73 | 152 | 1.0 | 3.0 | 0.00 | 0.00 | 0.00 | 49 | 1013.6 |
| 20260504004838 | 74 | 140 | 1.0 | 5.0 | 0.00 | 0.00 | 0.00 | 48 | 1013.6 |
| 20260504004322 | 74 | 140 | 1.0 | 5.0 | 0.00 | 0.00 | 0.00 | 47 | 1013.6 |